Weather Roundup
Issued by NWS

Home | Current Version | Previous Version | Graphics & Text | Print | Product List | Glossary Off
Versions: 1 2 3 4 5 6 7 8 9 10 11 12 13 14 15 16 17 18 19 20 21 22 23 24 25 26 27 28 29 30 31 32 33 34 35 36 37 38 39 40 41 42 43 44 45 46 47 48 49 50

000
NZUS93 KARX 260910
HRRWXR

CURRENT HOURLY OBSERVATIONS ACROSS
MUCH OF THE UPPER MISSISSIPPI VALLEY
NATIONAL WEATHER SERVICE LA CROSSE WI
300 AM CST WED NOV 26 2014


...SOUTHEAST MINNESOTA...


CITY           SKY/WX    TMP DP  RH WIND       PRES   REMARKS
ROCHESTER      CLOUDY    20  16  84 SE10      30.01S WCI   9
ROCHESTER/MAYO CLOUDY    20  14  76 SE9       30.02S WCI   9
WINONA         MOCLDY    21  18  86 SE5       30.09S WCI  15
AUSTIN         FLURRIES  25  21  86 SE9       29.98F WCI  15
ALBERT LEA     FLURRIES  25  21  86 SE12      29.96F WCI  14
DODGE CENTER   LGT SNOW  23  19  86 SE10      29.99S WCI  12
PRESTON        CLOUDY    19  15  86 SE6       30.02F WCI  11
OWATONNA       LGT SNOW  25  21  86 SE8       29.97F WCI  16
FARIBAULT      LGT SNOW  25  21  86 E6        29.99F WCI  18
$$

...ELSEWHERE IN MINNESOTA...


CITY           SKY/WX    TMP DP  RH WIND       PRES   REMARKS
MINNEAPOLIS    CLOUDY    23  15  71 E9        30.03S WCI  13
INTNL FALLS    LGT SNOW  14   9  80 N9        30.12R WCI   2
DULUTH         FLURRIES  19  11  70 CALM      30.05S
RED WING       MOCLDY    21  14  73 E6        30.05S WCI  14
REDWOOD FALLS  LGT SNOW  25  23  92 E6        29.95R FOG     WCI  18
MANKATO        CLOUDY    27  18  69 SE15      29.96S WCI  15
WORTHINGTON    CLOUDY    27  25  93 E10       29.86R WCI  17
FAIRMONT       CLOUDY    25  21  86 SE14      29.90S WCI  13
$$

...SOUTHWEST WISCONSIN...


CITY           SKY/WX    TMP DP  RH WIND       PRES   REMARKS
LA CROSSE      MOCLDY    20  14  77 SE7       30.09F WCI  11
PRAIRIE DU CHI MOCLDY    16  12  86 E5        30.10S WCI   8
BOSCOBEL       MOCLDY    13   9  84 CALM      30.13S
LONE ROCK      PTCLDY     7   0  73 CALM      30.14S
PLATTEVILLE    PTCLDY    13  11  91 CALM      30.11S
FORT MC COY    CLOUDY    18  15  87 CALM      30.11S
CAMP DOUGLAS   CLOUDY    12  11  98 SE2       30.11F
VIROQUA        PTSUNNY   15  14  95 SE8       30.05F WCI   4
WIS DELLS      CLEAR      9   6  89 CALM      30.12S
$$

...ELSEWHERE IN WISCONSIN...


CITY           SKY/WX    TMP DP  RH WIND       PRES   REMARKS
MILWAUKEE      CLEAR     15  11  83 SE5       30.17F WCI   8
MADISON        PTCLDY     9   5  84 CALM      30.15R
GREEN BAY      CLOUDY    15  13  91 CALM      30.17F
EAU CLAIRE     CLOUDY    22  15  75 E5        30.08R WCI  16
BLACK RVR FLS  CLOUDY    21  16  81 CALM      30.10S
MEDFORD        CLOUDY    18  15  88 E6        30.08S WCI  10
WAUSAU         CLOUDY    15  11  83 CALM      30.11R
WIS RAPIDS     CLOUDY    17  12  80 CALM      30.13S
MARSHFIELD     CLOUDY    19  15  84 E5        30.10R WCI  12
RICE LAKE      CLOUDY    22  17  81 E5        30.09R WCI  16
$$

...NORTHEAST IOWA...


CITY           SKY/WX    TMP DP  RH WIND       PRES   REMARKS
DECORAH        CLOUDY    19  16  86 SE7       30.03S WCI  10
MASON CITY     CLOUDY    25  20  81 SE14      29.97F WCI  13
CHARLES CITY   CLOUDY    23  19  86 SE12      30.00S WCI  12
OELWEIN        MOCLDY    21  18  86 SE12      30.02F WCI   9
$$

...ELSEWHERE IN IOWA...


CITY           SKY/WX    TMP DP  RH WIND       PRES   REMARKS
DES MOINES     LGT SNOW  30  27  88 SE12      29.94F FOG     WCI  20
IOWA CITY      MOCLDY    22  19  89 E6        30.07F WCI  14
FORT DODGE     CLOUDY    27  21  80 SE13G18   29.90F WCI  16
$$

...NORTHERN ILLINOIS...


CITY           SKY/WX    TMP DP  RH WIND       PRES   REMARKS
CHICAGO-OHARE  PTCLDY    19  15  84 NE3       30.17S
CHICAGO-MIDWAY CLOUDY    22  17  81 CALM      30.19R
MOLINE         PTCLDY    14  10  84 E8        30.10F WCI   3
ROCKFORD       CLEAR     11   7  84 CALM      30.16S FOG
PEORIA         PTCLDY    22  18  85 CALM      30.12F
$$

NOTE: "FAIR" INDICATES FEW OR NO CLOUDS BELOW 12,000 FEET WITH NO
SIGNIFICANT WEATHER AND/OR OBSTRUCTIONS TO VISIBILITY. WIND
SPEEDS ARE IN MILES-PER-HOUR.



USA.gov is the U.S. government's official web portal to all federal, state and local government web resources and services.